CW0736 Weather Reports


Display with metric or nautical units.
time (UTC)temp
F
wind
direction
speed
MPH
gust
MPH
rain 1hr
in
rain 24hr
in
rain mn
in
humidity
%
barometer
mb
20260904114602 62 17 0.0 0.0 0.00 0.50 0.00 98 1015.8
20260904114502 62 17 0.0 0.0 0.00 0.50 0.00 98 1015.8
20260904113103 61 17 0.0 0.0 0.00 0.50 0.00 97 1015.7
20260904113002 61 17 0.0 0.0 0.00 0.50 0.00 97 1015.7
20260904111508 61 17 0.0 0.0 0.00 0.50 0.00 97 1015.6
20260904110007 61 17 0.0 0.0 0.00 0.50 0.00 97 1015.5
20260904104506 61 17 0.0 0.0 0.00 0.50 0.00 97 1015.5
20260904103101 61 17 0.0 0.0 0.00 0.50 0.00 97 1015.2
20260904101510 61 17 0.0 0.0 0.00 0.50 0.00 97 1015.1
20260904100008 62 17 0.0 0.0 0.00 0.50 0.00 96 1015.0
20260904094517 62 17 0.0 0.0 0.00 0.50 0.00 97 1015.0
20260904093012 63 17 0.0 0.0 0.00 0.50 0.00 96 1015.1
20260904091516 63 17 0.0 0.0 0.00 0.50 0.00 97 1015.1
20260904090029 63 17 0.0 0.0 0.00 0.50 0.00 97 1014.9
20260904084546 63 17 0.0 0.0 0.00 0.50 0.00 97 1014.8
20260904083047 64 17 0.0 0.0 0.00 0.50 0.00 97 1014.7
20260904081546 64 17 0.0 0.0 0.00 0.50 0.00 97 1014.5
20260904080044 64 17 0.0 0.0 0.00 0.50 0.00 96 1014.4
20260904074543 64 17 0.0 0.0 0.00 0.50 0.00 97 1014.6
20260904073047 64 17 0.0 0.0 0.00 0.50 0.00 97 1014.4
20260904071539 64 17 0.0 0.0 0.00 0.50 0.00 97 1014.3
20260904070044 65 17 0.0 0.0 0.00 0.50 0.00 96 1014.3
20260904064545 65 17 0.0 0.0 0.00 0.50 0.00 96 1014.1
20260904063034 66 17 0.0 0.0 0.00 0.50 0.00 97 1014.3
20260904061507 66 17 0.0 0.0 0.00 0.50 0.00 97 1014.4
20260904060049 66 17 0.0 0.0 0.00 0.50 0.00 96 1014.4
20260904054552 66 17 0.0 0.0 0.00 0.50 0.00 96 1014.5
20260904053049 66 17 0.0 0.0 0.00 0.50 0.00 96 1014.7
20260904051601 66 17 0.0 0.0 0.00 0.50 0.00 96 1014.7
20260904050015 67 17 0.0 0.0 0.00 0.50 0.00 96 1014.8
20260904044549 67 17 0.0 0.0 0.00 0.50 0.00 96 1014.8
20260904043055 67 17 0.0 0.0 0.00 0.50 0.00 96 1014.8
20260904041533 67 17 0.0 0.0 0.00 0.50 0.00 96 1014.7
20260904040036 67 17 0.0 0.0 0.00 0.50 0.50 96 1014.6
20260904034521 67 17 0.0 0.0 0.00 0.50 0.50 96 1014.5
20260904033016 68 17 0.0 0.0 0.00 0.50 0.50 96 1014.4
20260904031542 68 17 0.0 0.0 0.00 0.50 0.50 96 1014.3
20260904030042 68 17 0.0 0.0 0.00 0.50 0.50 96 1014.2
20260904024547 68 17 0.0 0.0 0.00 0.50 0.50 95 1014.2
20260904023049 68 17 0.0 0.0 0.00 0.50 0.50 95 1014.3
20260904021608 69 17 0.0 0.0 0.00 0.50 0.50 95 1014.4
20260904021502 69 17 0.0 0.0 0.00 0.50 0.50 95 1014.4
20260904020057 69 17 0.0 0.0 0.00 0.53 0.50 95 1014.4
20260904014510 69 17 0.0 0.0 0.01 0.53 0.50 95 1014.3
20260904013010 70 17 0.0 0.0 0.01 0.53 0.50 94 1014.2
20260904011537 71 17 0.0 0.0 0.19 0.53 0.50 95 1014.1
20260904010038 72 17 0.0 0.0 0.32 0.62 0.50 95 1014.1
20260904004526 72 17 0.0 2.0 0.31 0.61 0.49 95 1014.0
20260904003034 72 17 0.0 2.0 0.31 0.61 0.49 95 1013.8
20260904001525 74 5 1.0 4.0 0.10 0.40 0.30 94 1013.9
20260904000028 75 196 0.0 1.0 0.00 1.07 0.18 95 1013.1
20260903234510 75 196 0.0 0.0 0.00 1.07 0.18 95 1013.4
20260903233054 75 196 0.0 0.0 0.00 1.07 0.18 95 1013.5
20260903231552 75 196 0.0 1.0 0.00 1.07 0.18 95 1013.5
20260903230054 76 196 0.0 1.0 0.00 1.08 0.18 95 1013.4
20260903224610 75 196 0.0 0.0 0.00 1.08 0.18 94 1013.4
20260903223010 76 196 0.0 0.0 0.00 1.08 0.18 94 1013.2
20260903221508 76 196 0.0 0.0 0.00 1.08 0.18 94 1012.7
20260903220004 76 196 0.0 1.0 0.00 1.08 0.18 94 1012.9
20260903214606 76 196 0.0 1.0 0.00 1.08 0.18 93 1012.9
20260903213058 76 196 0.0 2.0 0.00 1.08 0.18 93 1012.9
20260903211547 76 196 0.0 1.0 0.01 1.08 0.18 93 1013.2
20260903210108 76 196 0.0 0.0 0.17 1.08 0.18 93 1013.5
20260903204537 76 196 0.0 0.0 0.17 1.08 0.18 93 1013.3
20260903203019 76 328 0.0 2.0 0.17 1.08 0.18 90 1013.5
20260903201521 77 281 0.0 2.0 0.16 1.07 0.17 87 1013.7